Tracking 32932 objects as of 15-Jan-2026
HD Live streaming from Space Station
objects crossing your sky now

HULIANWANG DIGUI-19

Track HULIANWANG DIGUI-19 now!
10-day predictions


NORAD ID: 62979
Int'l Code: 2025-030J
Perigee: 1,156.2 km
Apogee: 1,156.6 km
Inclination: 50.0 °
Period: 108.3 minutes
Semi major axis: 7527 km
RCS: Unknown
Launch date: February 11, 2025
Source: People's Republic of China (PRC)
Launch site: Wenchang Satellite Launch Center (WSC)
Your satellite tracking list
Your tracking list is empty




NASA's NSSDC Master Catalog

Two Line Element Set (TLE):
1 62979U 25030J   26014.54373232 -.00000105  00000-0  40748-4 0  9999
2 62979  50.0057  66.8063 0000303  81.1614 278.9292 13.29337171 45429
Source of the keplerian elements: AFSPC